Location: Bagnara
(41.0500°N, 14.7833°E)
Time: 09:43:56
(UTC+00:00)

NOSS 2-2 (D) - Pass Details

Date: 20 June 2021
Orbit: 453 x 1754 km, 63.3° (Epoch: 01 August)

Event Time Altitude Azimuth Distance (km) Brightness Sun altitude
Exits shadow 01:31:04 23° 275° (W) 1,022 4.4 -16.9°
Maximum altitude 01:32:19 29° 313° (NW) 869 4.4 -16.7°
Drops below altitude 10° 01:35:33 10° 16° (NNE) 1,692 6.9 -16.4°
Sets 01:38:03 0° 28° (NNE) 2,692 8.6 -16.1°
